This is the latest recevied weather packets stored in our database for station/object N3AVN. If no packets are shown the sender has not sent any weather packets the latest 10 day(s).
| Time | Temp. | Humidity | Pressure | Rain* | Wind** | Luminosity | Snow |
|---|---|---|---|---|---|---|---|
| 1778152544 | 8.33° C | 78% | 1008.3 hPa | 0 mm | - | 33 W/m² | - |
| 1778152241 | 8.33° C | 78% | 1008.4 hPa | 0 mm | - | 45 W/m² | - |
| 1778151937 | 8.33° C | 81% | 1008.3 hPa | 0 mm | - | 48 W/m² | - |
| 1778151633 | 8.89° C | 82% | 1008.3 hPa | 0 mm | - | 45 W/m² | - |
| 1778151331 | 8.33° C | 83% | 1008.2 hPa | 0 mm | - | 44 W/m² | - |
| 1778151026 | 8.89° C | 86% | 1008.3 hPa | 0 mm | - | 40 W/m² | - |
| 1778150724 | 8.33° C | 87% | 1008.2 hPa | 0 mm | - | 31 W/m² | - |
| 1778150420 | 8.33° C | 88% | 1007.7 hPa | 0 mm | - | 22 W/m² | - |
| 1778150117 | 8.33° C | 89% | 1008 hPa | 0 mm | - | 18 W/m² | - |
| 1778149813 | 7.78° C | 91% | 1007.8 hPa | 0 mm | - | 11 W/m² | - |
| 1778149510 | 8.33° C | 93% | 1007.8 hPa | 0 mm | - | 11 W/m² | - |
| 1778149206 | 8.33° C | 93% | 1007.8 hPa | 0 mm | - | 12 W/m² | - |
| 1778148901 | 8.33° C | 92% | 1007.6 hPa | 0 mm | - | 6 W/m² | - |
| 1778148598 | 7.78° C | 92% | 1007.5 hPa | 0 mm | - | 4 W/m² | - |
| 1778148295 | 8.33° C | 93% | 1007.5 hPa | 0 mm | - | 5 W/m² | - |
| 1778147994 | 8.33° C | 92% | 1007.5 hPa | 0 mm | - | 2 W/m² | - |
| 1778147691 | 8.33° C | 92% | 1007.5 hPa | 0 mm | - | 0 W/m² | - |
| 1778147388 | 8.33° C | 92% | 1007.5 hPa | 0 mm | - | 0 W/m² | - |
| 1778147084 | 8.33° C | 92% | 1007.4 hPa | 0 mm | - | 0 W/m² | - |
| 1778146781 | 8.33° C | 92% | 1007.5 hPa | 0 mm | - | 0 W/m² | - |
| 1778146479 | 8.33° C | 92% | 1007.3 hPa | 0 mm | - | 0 W/m² | - |
| 1778146177 | 8.33° C | 95% | 1007.3 hPa | 0 mm | - | 0 W/m² | - |
| 1778145873 | 8.33° C | 95% | 1007.3 hPa | 0 mm | - | 0 W/m² | - |
| 1778145570 | 8.33° C | 96% | 1007.3 hPa | 0 mm | - | 0 W/m² | - |
| 1778145266 | 8.33° C | 97% | 1007.3 hPa | 0 mm | - | 0 W/m² | - |
* Rain latest hour (hover to see other rain measurements)
** Current wind speed in m/s (hover to see current wind gust speed)